Content
SEND FEEDBACK

Daily
Averages
Monthly
Summary
United States of America

CORNVILLE, ARIZONA


Home > North America > United States > Arizona
Elevation: 3320 feet     Latitude: 34 44N     Longitude: 112 02W

WEATHER
 
SELECT A DAY
Number of Records: 142,347;   Date Range: 1/4/95 - 12/26/14
 
SHARE

PRINT THIS DATA

[ ← Previous Day ]
WEATHER ALMANAC - JULY 22, 2014
[ Next Day → ]
[ °C ]   °F
Weather ElementAverageHighLow
Temperature85.6 °F96.8 °F (12:55 pm)71.6 °F (5:35 am)
Dewpoint36.4 °F39.2 °F (10:35 pm)33.8 °F (4:55 am)
Humidity17.9 %27 % (5:35 am)12 % (12:35 pm)
Barometer30.21 in30.27 in (9:35 am)30.16 in (5:15 pm)
Wind Speed7.4 mph12.7 mph (4:35 am)
Wind Gust16.1 mph (2:15 pm)
Weather ElementAverage
Visibility9 mi
Wind DirectionSE (134.8 °)

Weather ElementTotal
Precipitation---
Cooling Degree Days19.2 (Base 65)
Growing Degree Days34.2 (Base 50)
Averaged from 66 records on July 22, 2014
WEATHER CONDITIONS BREAKOUT
WIND DIRECTION BREAKOUT
WEATHER BY HOUR - JULY 22, 2014
[ °C ]   °F
Local TimeTemperatureDewpointHumidityBarometerVisibilityWind DirectionWind SpeedGust SpeedPrecipitationEventsConditions
12:35 AM77.0 °F35.6 °F22 %30.21 in10.0 miNNE (30°)11.5 mphClear
12:55 AM77.0 °F35.6 °F22 %30.21 in10.0 miNE (40°)11.5 mphClear
1:15 AM77.0 °F35.6 °F22 %30.21 in10.0 miNNE (30°)11.5 mphClear
1:35 AM77.0 °F35.6 °F22 %30.21 in10.0 miNNE (30°)10.4 mphClear
1:55 AM77.0 °F35.6 °F22 %30.21 in10.0 miNE (40°)11.5 mphClear
2:15 AM75.2 °F35.6 °F24 %30.21 in7.0 miNNE (30°)11.5 mphClear
2:35 AM73.4 °F35.6 °F25 %30.21 in7.0 miNE (40°)10.4 mphClear
2:55 AM73.4 °F35.6 °F25 %30.21 in7.0 miNE (40°)11.5 mphClear
3:15 AM73.4 °F35.6 °F25 %30.21 in7.0 miNE (50°)10.4 mphClear
4:35 AM73.4 °F35.6 °F25 %30.21 in7.0 miNE (50°)12.7 mphClear
4:55 AM73.4 °F33.8 °F23 %30.22 in7.0 miNE (40°)11.5 mphClear
5:15 AM73.4 °F33.8 °F23 %30.22 in7.0 miNE (40°)10.4 mphClear
5:35 AM71.6 °F35.6 °F27 %30.23 in5.0 miNE (50°)11.5 mphHaze
5:55 AM73.4 °F35.6 °F25 %30.23 in7.0 miNE (40°)9.2 mphClear
6:15 AM73.4 °F35.6 °F25 %30.24 in7.0 miNE (40°)9.2 mphClear
6:35 AM73.4 °F35.6 °F25 %30.24 in7.0 miNE (40°)9.2 mphClear
6:55 AM77.0 °F35.6 °F22 %30.24 in7.0 miNE (40°)8.1 mphClear
7:15 AM77.0 °F35.6 °F22 %30.25 in7.0 miNE (50°)6.9 mphClear
7:35 AM78.8 °F35.6 °F21 %30.25 in7.0 miNE (50°)3.5 mphClear
7:55 AM80.6 °F35.6 °F20 %30.25 in7.0 miEast (90°)6.9 mphClear
8:15 AM82.4 °F37.4 °F20 %30.25 in7.0 miEast (100°)4.6 mphClear
8:35 AM82.4 °F35.6 °F19 %30.26 in7.0 miNNE (30°)3.5 mphClear
8:55 AM86.0 °F37.4 °F18 %30.25 in7.0 miCalmScattered Clouds
9:15 AM86.0 °F37.4 °F18 %30.26 in7.0 miSSW (200°)3.5 mphScattered Clouds
9:35 AM87.8 °F35.6 °F16 %30.27 in10.0 miCalmScattered Clouds
10:15 AM89.6 °F35.6 °F15 %30.26 in10.0 miSSW (200°)4.6 mphScattered Clouds
10:35 AM89.6 °F35.6 °F15 %30.26 in10.0 miSouth (190°)3.5 mphScattered Clouds
10:55 AM91.4 °F35.6 °F14 %30.25 in10.0 miSSE (150°)3.5 mphScattered Clouds
11:15 AM89.6 °F35.6 °F15 %30.26 in10.0 miSouth (170°)4.6 mphMostly Cloudy
11:35 AM89.6 °F35.6 °F15 %30.25 in10.0 miSouth (170°)3.5 mphOvercast
11:55 AM91.4 °F35.6 °F14 %30.25 in7.0 miSSE (150°)3.5 mphScattered Clouds
12:15 PM95.0 °F37.4 °F13 %30.24 in7.0 miSSW (210°)5.8 mphScattered Clouds
12:35 PM95.0 °F35.6 °F12 %30.23 in10.0 miWNW (290°)3.5 mphScattered Clouds
12:55 PM96.8 °F35.6 °F12 %30.23 in10.0 miEast (100°)3.5 mphClear
1:15 PM96.8 °F35.6 °F12 %30.22 in10.0 miENE (60°)4.6 mphClear
1:35 PM96.8 °F35.6 °F12 %30.21 in10.0 miSouth (170°)8.1 mphClear
1:55 PM95.0 °F35.6 °F12 %30.21 in10.0 miCalmClear
2:15 PM95.0 °F35.6 °F12 %30.20 in10.0 miWSW (250°)10.4 mph16.1 mphClear
2:35 PM95.0 °F35.6 °F12 %30.20 in10.0 miWest (270°)8.1 mphScattered Clouds
2:55 PM96.8 °F35.6 °F12 %30.19 in10.0 miWNW (290°)11.5 mph16.1 mphClear
3:15 PM95.0 °F35.6 °F12 %30.19 in10.0 miWest (280°)9.2 mphClear
3:35 PM93.2 °F35.6 °F13 %30.18 in10.0 miWest (260°)5.8 mph9.2 mphClear
3:55 PM95.0 °F35.6 °F12 %30.17 in10.0 miSSW (200°)5.8 mphClear
4:15 PM95.0 °F35.6 °F12 %30.17 in10.0 miWSW (240°)10.4 mphClear
4:35 PM95.0 °F35.6 °F12 %30.17 in10.0 miWest (280°)9.2 mphClear
4:55 PM95.0 °F37.4 °F13 %30.17 in10.0 miNW (310°)8.1 mphClear
5:15 PM95.0 °F37.4 °F13 %30.16 in10.0 miWest (280°)8.1 mphClear
5:35 PM95.0 °F37.4 °F13 %30.16 in10.0 miSW (220°)3.5 mphClear
5:55 PM93.2 °F37.4 °F14 %30.16 in10.0 miWNW (300°)8.1 mphClear
6:15 PM91.4 °F37.4 °F15 %30.16 in10.0 miWest (280°)9.2 mphClear
6:55 PM91.4 °F37.4 °F15 %30.16 in10.0 miWNW (290°)9.2 mphClear
7:15 PM91.4 °F37.4 °F15 %30.16 in10.0 miWNW (300°)6.9 mphClear
7:35 PM89.6 °F37.4 °F16 %30.17 in10.0 miNW (310°)5.8 mphClear
7:55 PM89.6 °F37.4 °F16 %30.17 in10.0 miNW (310°)5.8 mphClear
8:15 PM87.8 °F37.4 °F17 %30.18 in10.0 miNW (320°)5.8 mphClear
8:35 PM87.8 °F37.4 °F17 %30.18 in10.0 miNNE (30°)8.1 mphClear
8:55 PM86.0 °F37.4 °F18 %30.19 in10.0 miNE (40°)10.4 mphClear
9:15 PM86.0 °F37.4 °F18 %30.19 in10.0 miNNE (30°)10.4 mphClear
9:35 PM86.0 °F37.4 °F18 %30.20 in10.0 miNE (50°)9.2 mphClear
9:55 PM84.2 °F37.4 °F19 %30.20 in10.0 miNE (40°)10.4 mphClear
10:15 PM84.2 °F37.4 °F19 %30.20 in10.0 miENE (60°)9.2 mphClear
10:35 PM84.2 °F39.2 °F20 %30.21 in10.0 miNE (50°)9.2 mphClear
10:55 PM80.6 °F39.2 °F23 %30.23 in10.0 miNNW (340°)5.8 mph9.2 mphClear
11:15 PM82.4 °F39.2 °F21 %30.23 in10.0 miENE (70°)3.5 mphClear
11:35 PM82.4 °F39.2 °F21 %30.23 in10.0 miESE (110°)3.5 mphClear
11:55 PM80.6 °F39.2 °F23 %30.23 in10.0 miNE (40°)5.8 mphClear
Hourly data recorded from KSEZ, located miles away from Cornville, Arizona







STORIES FROM OUR PARTNERS